| time (UTC) | temp F | wind direction | speed MPH | gust MPH | rain 1hr in | rain 24hr in | rain mn in | humidity % | barometer mb |
| 20260506134609 | 0 | 0.0 | 0.0 | 0.00 | 0.00 | 0.00 | 1009.9 | ||
| 20260506133038 | 0 | 0.0 | 0.0 | 0.00 | 0.00 | 0.00 | 1009.9 | ||
| 20260506131533 | 0 | 0.0 | 0.0 | 0.00 | 0.00 | 0.00 | 1009.8 | ||
| 20260506130026 | 0 | 25 | 0.0 | 0.0 | 0.00 | 0.00 | 0.00 | 1009.4 | |
| 20260506124524 | 60 | 25 | 0.0 | 0.0 | 0.00 | 0.00 | 0.00 | 87 | 1009.1 |
| 20260506123022 | 60 | 25 | 0.0 | 0.0 | 0.00 | 0.00 | 0.00 | 87 | 1008.9 |
| 20260506121518 | 61 | 25 | 0.0 | 0.0 | 0.00 | 0.00 | 0.00 | 86 | 1008.5 |
| 20260506120014 | 61 | 25 | 0.0 | 0.0 | 0.00 | 0.00 | 0.00 | 86 | 1008.2 |
| 20260506114521 | 62 | 25 | 0.0 | 0.0 | 0.00 | 0.00 | 0.00 | 86 | 1008.1 |
| 20260506113009 | 62 | 25 | 0.0 | 0.0 | 0.00 | 0.00 | 0.00 | 85 | 1007.8 |
| 20260506111505 | 63 | 25 | 0.0 | 0.0 | 0.00 | 0.00 | 0.00 | 84 | 1007.5 |
| 20260506110033 | 63 | 25 | 0.0 | 0.0 | 0.00 | 0.00 | 0.00 | 84 | 1007.4 |
| 20260506104531 | 63 | 25 | 0.0 | 0.0 | 0.00 | 0.00 | 0.00 | 84 | 1007.2 |
| 20260506103106 | 64 | 25 | 0.0 | 0.0 | 0.00 | 0.00 | 0.00 | 84 | 1006.9 |
| 20260506101558 | 64 | 25 | 0.0 | 0.0 | 0.00 | 0.00 | 0.00 | 83 | 1007.0 |
| 20260506100053 | 64 | 25 | 0.0 | 0.0 | 0.00 | 0.00 | 0.00 | 82 | 1006.7 |
| 20260506094551 | 65 | 25 | 0.0 | 0.0 | 0.00 | 0.00 | 0.00 | 82 | 1006.4 |
| 20260506093053 | 66 | 25 | 0.0 | 0.0 | 0.00 | 0.00 | 0.00 | 81 | 1006.5 |
| 20260506091545 | 66 | 25 | 0.0 | 0.0 | 0.00 | 0.00 | 0.00 | 80 | 1006.4 |
| 20260506090040 | 67 | 25 | 0.0 | 0.0 | 0.00 | 0.00 | 0.00 | 81 | 1006.3 |
| 20260506084536 | 68 | 25 | 0.0 | 0.0 | 0.00 | 0.00 | 0.00 | 81 | 1006.3 |
| 20260506083032 | 70 | 25 | 0.0 | 0.0 | 0.00 | 0.00 | 0.00 | 80 | 1006.1 |
| 20260506081532 | 71 | 25 | 0.0 | 0.0 | 0.00 | 0.00 | 0.00 | 80 | 1005.9 |
| 20260506073048 | 74 | 25 | 0.0 | 0.0 | 0.00 | 0.00 | 0.00 | 89 | 1005.6 |
| 20260506071552 | 74 | 25 | 0.0 | 0.0 | 0.00 | 0.00 | 0.00 | 93 | 1005.3 |
| 20260506061544 | 74 | 25 | 0.0 | 0.0 | 0.00 | 0.00 | 0.00 | 93 | 1005.2 |
| 20260506044537 | 74 | 25 | 0.0 | 0.0 | 0.00 | 0.00 | 0.00 | 92 | 1004.9 |
| 20260506043033 | 74 | 25 | 0.0 | 0.0 | 0.00 | 0.00 | 0.00 | 92 | 1004.9 |
| 20260506041504 | 74 | 25 | 0.0 | 0.0 | 0.00 | 0.00 | 0.00 | 91 | 1005.0 |
| 20260506040101 | 75 | 25 | 0.0 | 0.0 | 0.00 | 0.00 | 0.00 | 91 | 1004.6 |
| 20260506034600 | 75 | 25 | 0.0 | 0.0 | 0.00 | 0.00 | 0.00 | 91 | 1004.4 |
| 20260506033053 | 75 | 25 | 0.0 | 0.0 | 0.00 | 0.00 | 0.00 | 91 | 1003.9 |
| 20260506031552 | 75 | 25 | 0.0 | 0.0 | 0.00 | 0.00 | 0.00 | 91 | 1003.9 |
| 20260506030052 | 75 | 25 | 0.0 | 0.0 | 0.00 | 0.00 | 0.00 | 91 | 1003.8 |
| 20260506024557 | 75 | 25 | 0.0 | 0.0 | 0.00 | 0.00 | 0.00 | 91 | 1003.7 |
| 20260506023047 | 75 | 25 | 0.0 | 0.0 | 0.00 | 0.00 | 0.00 | 91 | 1003.8 |
| 20260506021545 | 75 | 25 | 0.0 | 0.0 | 0.00 | 0.00 | 0.00 | 92 | 1003.0 |
| 20260506020053 | 76 | 25 | 0.0 | 0.0 | 0.00 | 0.00 | 0.00 | 91 | 1003.6 |
| 20260506014514 | 76 | 25 | 0.0 | 0.0 | 0.00 | 0.00 | 0.00 | 91 | 1003.6 |
| 20260506013010 | 77 | 25 | 0.0 | 0.0 | 0.00 | 0.00 | 0.00 | 89 | 1003.3 |
| 20260506011504 | 77 | 25 | 0.0 | 0.0 | 0.00 | 0.00 | 0.00 | 88 | 1003.3 |
| 20260506010003 | 78 | 25 | 0.0 | 0.0 | 0.00 | 0.00 | 0.00 | 88 | 1003.2 |
| 20260506004606 | 78 | 25 | 0.0 | 0.0 | 0.00 | 0.00 | 0.00 | 87 | 1003.3 |
| 20260506003058 | 79 | 25 | 0.0 | 0.0 | 0.00 | 0.00 | 0.00 | 86 | 1002.8 |
| 20260506001559 | 79 | 25 | 0.0 | 1.0 | 0.00 | 0.00 | 0.00 | 86 | 1002.4 |
| 20260506000116 | 80 | 25 | 0.0 | 0.0 | 0.00 | 0.00 | 0.00 | 84 | 1002.5 |
| 20260505234553 | 80 | 25 | 0.0 | 1.0 | 0.00 | 0.00 | 0.00 | 83 | 1002.5 |
| 20260505233055 | 81 | 25 | 0.0 | 3.0 | 0.00 | 0.00 | 0.00 | 82 | 1002.4 |
| 20260505231548 | 81 | 25 | 0.0 | 3.0 | 0.00 | 0.00 | 0.00 | 81 | 1002.4 |
| 20260505230100 | 81 | 25 | 0.0 | 2.0 | 0.00 | 0.00 | 0.00 | 81 | 1002.3 |
| 20260505224543 | 81 | 25 | 0.0 | 1.0 | 0.00 | 0.00 | 0.00 | 82 | 1002.3 |
| 20260505223042 | 81 | 25 | 0.0 | 2.0 | 0.00 | 0.00 | 0.00 | 82 | 1002.0 |
| 20260505221538 | 81 | 25 | 0.0 | 1.0 | 0.00 | 0.00 | 0.00 | 80 | 1002.3 |
| 20260505220040 | 82 | 25 | 1.0 | 3.0 | 0.00 | 0.00 | 0.00 | 79 | 1002.1 |
| 20260505214535 | 82 | 25 | 1.0 | 3.0 | 0.00 | 0.00 | 0.00 | 78 | 1002.4 |
| 20260505213037 | 83 | 25 | 1.0 | 4.0 | 0.00 | 0.00 | 0.00 | 76 | 1002.3 |
| 20260505211503 | 82 | 25 | 0.0 | 3.0 | 0.00 | 0.00 | 0.00 | 79 | 1002.6 |
| 20260505210001 | 83 | 25 | 0.0 | 3.0 | 0.00 | 0.00 | 0.00 | 78 | 1002.8 |
| 20260505204602 | 82 | 25 | 0.0 | 2.0 | 0.00 | 0.00 | 0.00 | 78 | 1002.9 |
| 20260505203103 | 82 | 25 | 0.0 | 4.0 | 0.00 | 0.00 | 0.00 | 79 | 1003.0 |
| 20260505201557 | 82 | 25 | 0.0 | 4.0 | 0.00 | 0.00 | 0.00 | 78 | 1003.0 |
| 20260505200055 | 83 | 25 | 0.0 | 3.0 | 0.00 | 0.00 | 0.00 | 78 | 1003.2 |
| 20260505194606 | 82 | 25 | 0.0 | 3.0 | 0.00 | 0.00 | 0.00 | 78 | 1003.3 |
| 20260505193048 | 81 | 25 | 0.0 | 1.0 | 0.00 | 0.00 | 0.00 | 80 | 1003.5 |
| 20260505191558 | 81 | 25 | 0.0 | 4.0 | 0.00 | 0.00 | 0.00 | 79 | 1003.5 |
| 20260505190047 | 81 | 25 | 0.0 | 2.0 | 0.00 | 0.00 | 0.00 | 79 | 1003.4 |
| 20260505184521 | 81 | 25 | 0.0 | 3.0 | 0.00 | 0.00 | 0.00 | 80 | 1003.6 |
| 20260505183017 | 79 | 25 | 0.0 | 3.0 | 0.00 | 0.00 | 0.00 | 81 | 1003.7 |
| 20260505181545 | 78 | 25 | 0.0 | 4.0 | 0.00 | 0.00 | 0.00 | 81 | 1003.8 |
| 20260505180049 | 79 | 25 | 0.0 | 3.0 | 0.00 | 0.00 | 0.00 | 81 | 1004.1 |
| 20260505174540 | 79 | 25 | 0.0 | 4.0 | 0.00 | 0.00 | 0.00 | 81 | 1004.0 |
| 20260505173035 | 77 | 25 | 0.0 | 3.0 | 0.00 | 0.00 | 0.00 | 85 | 1004.2 |
| 20260505171535 | 77 | 25 | 0.0 | 3.0 | 0.00 | 0.00 | 0.00 | 84 | 1004.4 |
| 20260505170033 | 77 | 25 | 0.0 | 3.0 | 0.00 | 0.00 | 0.00 | 84 | 1004.3 |
| 20260505164533 | 75 | 25 | 0.0 | 3.0 | 0.00 | 0.00 | 0.00 | 87 | 1004.3 |
| 20260505163031 | 74 | 25 | 0.0 | 3.0 | 0.00 | 0.00 | 0.00 | 87 | 1004.5 |
| 20260505161529 | 73 | 25 | 0.0 | 2.0 | 0.00 | 0.00 | 0.00 | 88 | 1004.5 |
| 20260505153026 | 73 | 24 | 0.0 | 3.0 | 0.00 | 0.00 | 0.00 | 89 | 1004.3 |
| 20260505151525 | 72 | 25 | 0.0 | 3.0 | 0.00 | 0.00 | 0.00 | 89 | 1004.4 |